Location: Eisengraberamt
(48.5500°N, 15.4333°E)
Time: 07:31:42
(UTC+00:00)

Daily predictions for brighter satellites

Satellite Brightness Start Highest point End
(mag) Time Altitude Azimuth Time Altitude Azimuth Time Altitude Azimuth
USA 215 4.0 16:05:46 10° ENE 16:11:51 43° N 16:17:56 10° WNW
Cosmos 1953 3.3 16:10:26 10° SSW 16:14:17 51° WNW 16:18:12 10° N
Cosmos 44 3.8 16:10:34 10° S 16:14:40 36° ESE 16:19:01 10° NE
NOAA 11 4.4 16:09:34 10° SE 16:14:48 50° ENE 16:20:02 10° N
USA 306 3.5 16:14:50 10° WNW 16:18:57 43° N 16:23:04 10° E
CSL-04 DEB 4.3 16:17:00 10° NNE 16:20:57 89° E 16:24:53 10° SSW
Cosmos 968 Rocket 4.3 16:17:52 10° N 16:22:27 29° NE 16:26:58 10° ESE
Cosmos 2369 Rocket 4.0 16:19:07 10° WSW 16:24:03 29° NW 16:29:02 10° NNE
Cosmos 2297 Rocket 2.5 16:19:32 10° NNW 16:25:00 46° NE 16:30:26 10° SE
ERS-2 2.3 16:21:31 10° NNE 16:25:06 52° ESE 16:28:40 10° S
Aureole 3 Rocket 4.1 16:21:38 10° SE 16:25:09 28° E 16:29:42 10° NNE
SAR-Lupe-4 4.5 16:21:59 10° NE 16:25:09 28° E 16:28:17 10° SSE
Meteor 1-11 4.3 16:20:19 10° N 16:26:04 83° ENE 16:31:51 10° SSE
COSMOS 2487 4.2 16:25:12 10° NW 16:28:25 37° WSW 16:31:36 10° S
Cosmos 1340 3.5 16:25:46 10° N 16:29:07 29° ENE 16:32:28 10° SE
COSMO-SKYMED 1 3.4 16:27:13 10° NNE 16:31:04 30° E 16:34:53 10° SSE
CORIOLIS 4.2 16:26:17 10° SSE 16:31:38 86° WSW 16:37:02 10° NNW
FengYun 1-2 T 4.3 16:27:07 10° SSE 16:32:45 77° ENE 16:38:24 10° NNW
H-2A R/B 2.7 16:29:00 10° N 16:33:06 56° WNW 16:37:07 10° SSW
Cosmos 1110 Rocket 4.0 16:29:05 10° SSW 16:34:19 77° ESE 16:39:33 10° NNE
Cosmos 1302 Rocket 4.5 16:31:54 10° S 16:36:46 40° ESE 16:41:41 10° NE
NOSS 2-2 (C) 4.4 16:32:15 10° NW 16:37:36 74° NE 16:45:05 10° SE
Lacrosse 5 3.0 16:35:08 10° WNW 16:39:44 33° N 16:44:18 10° NE
Timation 2 Rocket 4.2 16:33:29 10° NNW 16:40:06 86° ENE 16:46:56 10° SSE
Cosmos 1825 Rocket 3.7 16:36:12 10° NNW 16:40:41 79° W 16:45:05 10° S
Cosmos 1486 Rocket 4.4 16:37:43 10° NNW 16:42:48 42° ENE 16:47:51 10° SE
SAR-Lupe-1 4.4 16:39:39 10° NNE 16:43:06 42° E 16:46:31 10° S
ADEOS Rocket 3.8 16:36:52 10° N 16:43:08 63° WNW 16:50:03 10° SSW
Cosmos 292 Rocket 3.8 16:38:51 10° S 16:43:35 64° ESE 16:48:23 10° NNE
Aureole 3 3.4 16:41:16 10° SSE 16:44:04 31° E 16:46:46 10° NNE
Okean O Rocket 2.6 16:40:57 10° S 16:45:13 52° W 16:49:29 10° NNW
Meteor 2-21 Rocket 4.5 16:39:17 10° N 16:45:31 87° E 16:51:39 10° S
FALCON 9 DEB 4.0 16:43:17 10° WNW 16:46:31 37° N 16:48:52 16° ENE
YAOGAN 1 3.3 16:43:19 10° SE 16:47:06 30° ENE 16:50:54 10° N
USA 281 3.9 16:41:23 10° S 16:47:50 59° WSW 16:54:21 10° NNW
ERBS 4.2 16:46:17 10° NW 16:48:48 20° N 16:51:09 11° NE
FALCON 9 DEB 3.3 16:45:53 10° SW 16:49:01 49° SSE 16:51:05 19° ENE
FALCON 9 DEB 3.1 16:50:07 10° SW 16:53:15 56° SSE 16:55:10 21° ENE
CZ-2C R/B 3.7 16:48:02 10° SE 16:53:23 41° ENE 16:58:36 10° N
Feng Yun 1-1 Rocket 4.4 16:47:31 10° SSE 16:53:25 86° ENE 16:59:24 10° NNW
SMAP 4.4 16:49:41 10° S 16:54:07 44° W 16:58:36 10° NNW
Cosmos 2219 3.2 16:49:35 10° NNW 16:55:23 76° ENE 17:01:08 10° SSE
Cosmos 1455 3.5 16:53:41 10° SE 16:56:10 19° E 16:56:10 19° E
Cosmos 1726 Rocket 3.5 16:53:05 10° S 16:57:25 87° ESE 17:01:51 10° N
Cosmos 1553 Rocket 4.2 16:54:16 10° SSE 17:00:21 51° E 17:06:23 10° NNE
USA 307 3.1 16:57:50 10° WNW 17:02:05 56° NNE 17:04:41 22° E
Meteor 2-10 Rocket 4.1 16:58:35 10° SSE 17:03:20 34° E 17:07:57 10° NNE
Cosmos 2082 4.1 16:58:31 10° NNW 17:04:00 44° NE 17:08:49 13° ESE
Cosmos 2228 3.6 17:00:21 10° SSW 17:04:32 59° WNW 17:08:48 10° N
Cosmos 1939 Rocket 2.7 17:01:02 10° SSE 17:05:00 88° ENE 17:08:56 10° NNW
CZ-4B R/B 2.2 17:01:57 10° N 17:05:07 51° WNW 17:08:11 10° SSW
FALCON 9 DEB 3.0 17:02:01 10° SW 17:05:15 65° SSE 17:06:44 28° ENE
USA 308 3.1 17:02:41 10° WNW 17:06:56 58° NNE 17:09:20 24° E
ATLAS 5 CENTAUR R/B 3.9 17:06:10 10° WNW 17:09:15 17° NNW 17:12:37 10° NNE
CZ-4 R/B 4.3 17:05:22 10° SSE 17:09:31 78° ENE 17:13:42 10° N
Helios 1A Rocket 2.8 17:08:02 10° SSE 17:12:08 74° ENE 17:16:15 10° N
Cosmos 1606 Rocket 4.4 17:08:51 10° SSW 17:13:07 52° WNW 17:17:27 10° N
ARGOS 3.7 17:13:10 16° ESE 17:16:53 35° ENE 17:21:46 10° N
FALCON 9 DEB 2.8 17:13:40 10° WSW 17:16:53 83° SSE 17:17:56 39° ENE
Okean-O 2.5 17:14:11 10° SSE 17:18:35 76° ENE 17:23:03 10° N
Cosmos 2369 4.4 17:13:58 10° SSE 17:18:53 31° ESE 17:21:09 23° ENE
SKYMED 2 3.5 17:14:56 10° NNE 17:19:19 89° E 17:23:39 10° SSW
Cosmos 1689 Rocket 2.0 17:17:40 10° NNE 17:20:35 81° WNW 17:23:27 10° SSW
Meteor 2-15 4.5 17:15:15 10° S 17:21:13 57° E 17:27:14 10° NNE
SL-08 R/B 4.4 17:15:27 10° N 17:21:40 83° E 17:27:47 10° S
Cosmos 1656 3.6 17:16:48 10° SSW 17:22:17 66° ESE 17:27:54 10° NNE
Cosmos 1400 Rocket 3.0 17:20:43 10° SSW 17:24:49 77° WNW 17:28:55 10° N
Cosmos 1745 Rocket 4.0 17:18:36 10° N 17:24:53 66° ENE 17:31:10 10° SSE
H-2A R/B 2.3 17:21:09 10° SE 17:26:24 53° ENE 17:31:42 10° N
Ariane Rocket 4.2 17:27:38 23° NE 17:27:38 23° NE 17:31:13 10° N
PSLV R/B 3.9 17:23:23 10° NNE 17:27:36 90° NE 17:31:45 10° SSW
GEOS 3 Rocket 3.7 17:24:33 23° ESE 17:27:55 64° NE 17:33:16 10° NW
CZ-4 R/B 1.2 17:25:04 10° SSE 17:28:57 89° ENE 17:32:51 10° NNW
Geosat 4.4 17:26:30 24° ENE 17:29:02 41° ESE 17:33:46 10° S
Cosmos 2227 Rocket 2.3 17:23:38 10° NNW 17:29:19 80° WSW 17:34:58 10° SSE
Cosmos 2058 2.7 17:25:33 10° N 17:29:39 66° E 17:33:43 10° SSE
Cosmos 1892 2.7 17:27:05 10° N 17:30:58 85° W 17:34:51 10° S
Cosmos 220 Rocket 4.2 17:28:28 10° S 17:32:40 48° ESE 17:34:07 34° NE
CSL-04 Rocket 3.7 17:29:14 10° SSE 17:34:42 63° ENE 17:40:09 10° N
Cosmos 2263 Rocket 3.2 17:30:09 10° NNW 17:34:56 26° NE 17:35:34 26° NE
Cosmos 1408 2.4 17:31:32 10° N 17:35:11 71° E 17:37:15 24° SSE
BREEZE-M R/B 3.0 17:29:39 10° W 17:36:36 84° N 17:37:09 57° E
Cosmos 1386 Rocket 4.4 17:31:53 10° N 17:38:20 77° E 17:44:40 10° SSE
NOSS 3-4 (A) 4.1 17:34:46 10° NW 17:41:17 47° NE 17:44:11 32° E
NOSS 3-4 (C) 4.1 17:34:52 10° NW 17:41:23 46° NE 17:44:16 32° E
Meteor 2-1 Rocket 4.1 17:36:12 10° S 17:41:37 64° E 17:47:06 10° NNE
CZ-4C R/B 3.8 17:36:02 10° NW 17:41:49 30° NNE 17:44:24 25° ENE
Cosmos 2058 Rocket 4.1 17:42:11 10° SSW 17:46:32 48° WNW 17:50:55 10° N
Cosmos 1697 Rocket 2.7 17:41:25 10° S 17:46:52 57° ESE 17:49:37 29° NE
SeaSat 1 2.5 17:46:28 44° ESE 17:47:41 56° NE 17:52:31 10° NNW
SL-4 R/B 1.8 17:45:26 10° WNW 17:49:00 62° NNE 17:49:04 62° NNE
Cosmos 1346 Rocket 3.0 17:45:56 10° NNW 17:49:55 71° W 17:53:53 10° S
CRYOSAT 2 4.2 17:46:49 10° N 17:51:43 76° E 17:56:34 10° S
NOSS 3-3 (A) 3.9 17:46:06 10° SSW 17:51:47 58° ESE 17:54:18 35° ENE
NOSS 3-3 (C) 3.9 17:46:11 10° SSW 17:51:54 58° ESE 17:54:24 35° ENE
Cosmos 1825 2.3 17:48:24 10° N 17:51:38 59° NNE 17:51:38 59° NNE
USA 305 2.8 17:48:32 10° WNW 17:52:52 86° SSW 17:53:27 66° SE
USA 215 3.6 17:51:39 35° ENE 17:54:13 53° NNE 18:00:32 10° NW
Cosmos 1709 Rocket 4.0 17:48:19 10° N 17:54:40 64° ENE 17:59:42 17° SSE
Cosmos 44 4.4 17:51:33 10° WSW 17:55:52 39° NW 17:59:04 18° NNE
Cosmos 1315 Rocket 2.6 17:52:01 10° S 17:55:57 83° E 17:56:20 72° NNE
SJ-11-01 4.2 17:53:43 14° SSE 17:57:40 86° WSW 18:02:24 10° NNW
USA 306 2.8 17:54:57 10° WNW 17:59:15 80° SSW 17:59:35 73° SSE
BREEZE-M R/B 3.8 17:58:37 10° WNW 18:02:55 89° SSW 18:05:18 44° ESE
ATLAS 2AS CENTAUR R/B 3.1 17:56:06 10° NW 18:03:30 50° NE 18:05:17 42° ENE
Cosmos 968 Rocket 4.4 17:59:28 10° NNW 18:04:28 47° WSW 18:09:24 10° S
COSMO-SKYMED 1 4.3 18:03:21 10° N 18:07:13 32° WNW 18:11:05 10° SW
MOS 1 Rocket 3.2 18:03:31 10° NNE 18:08:12 88° WNW 18:13:09 10° SSW
Cosmos 2297 Rocket 3.8 18:03:52 10° NW 18:08:55 34° WSW 18:13:57 10° S
Cosmos 1980 Rocket 3.2 18:04:14 10° S 18:07:19 31° SSE 18:07:19 31° SSE
Cosmos 1076 Rocket 3.8 18:05:40 10° NNW 18:09:53 65° W 18:11:35 34° SSW
IRS-1A Rocket 4.5 18:10:35 49° NE 18:10:35 49° NE 18:15:28 10° N
Cosmos 883 Rocket 4.3 18:05:14 10° S 18:11:21 76° E 18:17:29 10° NNE
Cosmos 1777 Rocket 4.5 18:06:38 10° NNW 18:10:50 44° NNE 18:10:50 44° NNE
Cosmos 2315 Rocket 3.8 18:09:15 10° S 18:15:23 67° E 18:21:33 10° NNE
S3M 4.3 18:09:56 10° SSW 18:16:00 67° WNW 18:22:10 10° N
YAOGAN 1 4.3 18:19:17 10° SSW 18:23:09 31° W 18:27:02 10° NNW
Lacrosse 5 2.8 18:19:04 10° NW 18:23:30 36° N 18:23:30 36° N
Cosmos 2360 4.1 18:20:01 10° SSW 18:25:45 84° ESE 18:26:15 75° NE
Cosmos 1812 Rocket 4.2 18:26:34 10° SSW 18:35:45 - N 18:30:37 54° W
Cosmos 1455 3.7 18:28:14 10° SW 18:31:13 34° W 18:31:13 34° W
Meteor 2-3 Rocket 4.1 18:30:21 10° N 18:34:43 51° NNE 18:34:43 51° NNE
USA 307 4.4 18:38:01 10° WNW 18:40:52 34° W 18:40:52 34° W
ATLAS 5 CENTAUR R/B 4.1 18:52:37 10° NNW 18:55:00 16° N 18:55:00 16° N
ARGOS 4.3 18:54:41 26° SSW 18:57:04 40° W 19:02:12 10° NNW
Cosmos 2369 4.4 18:57:17 10° SW 19:02:50 51° NW 19:03:11 50° NW
Ariane Rocket 4.3 19:07:51 35° NW 19:07:51 35° NW 19:10:55 10° NNW
H-2A R/B 4.1 19:01:36 10° SSW 19:06:05 26° W 19:10:39 10° NW
Cosmos 2263 Rocket 3.4 19:13:42 10° NNW 19:17:16 39° NW 19:17:16 39° NW
SeaSat 1 4.4 19:26:15 24° W 19:26:15 24° W 19:29:34 10° NW
Cosmos 1697 Rocket 4.3 19:26:16 10° WSW 19:31:11 30° NW 19:31:25 30° NW
CZ-4C R/B 3.4 19:24:26 10° NW 19:29:36 53° NNW 19:29:36 53° NNW
NOSS 3-4 (A) 4.3 19:25:39 10° NW 19:31:39 55° W 19:31:39 55° W
NOSS 3-4 (C) 4.3 19:25:45 10° NW 19:31:43 55° W 19:31:43 55° W
USA 215 3.9 19:39:00 49° WNW 19:39:00 49° WNW 19:43:39 10° WNW
ATLAS 2AS CENTAUR R/B 3.7 19:47:25 10° NW 19:52:43 43° WNW 19:52:43 43° WNW
